Location: Newark
(25.6108°S, 54.5803°W)
Time: 07:33:19
(UTC+00:00)

Tiros 1 - Pass Details

Date: 31 October 2020
Orbit: 630 x 664 km, 48.4° (Epoch: 29 November)

Event Time Altitude Azimuth Distance (km) Brightness Sun altitude
Rises 15:40:16 0° 331° (NNW) 2,940 10.7 78.0°
Reaches altitude 10° 15:42:39 10° 337° (NNW) 2,042 10.1 77.8°
Maximum altitude 15:47:08 44° 49° (NE) 901 8.7 77.3°
Drops below altitude 10° 15:51:42 10° 121° (ESE) 2,081 9.8 76.8°
Sets 15:54:09 0° 127° (SE) 3,003 10.4 76.5°
